Tracking 29892 objects as of 21-Nov-2024
HD Live streaming from Space Station
objects crossing your sky now

FENGYUN 1C DEB

Track FENGYUN 1C DEB now!
10-day predictions


NORAD ID: 30237
Int'l Code: 1999-025WW
Perigee: 777.9 km
Apogee: 798.6 km
Inclination: 98.8 °
Period: 100.5 minutes
Semi major axis: 7159 km
RCS: 0.036 m2 (small)
Launch date: May 10, 1999
Source: People's Republic of China (PRC)
Launch site: Taiyaun Space Center, China (TSC)

Note: This is SATELLITE DEBRIS
Your satellite tracking list
Your tracking list is empty




NASA's NSSDC Master Catalog

Two Line Element Set (TLE):
1 30237U 99025WW  24324.18837993  .00009113  00000-0  33269-2 0  9992
2 30237  98.8300  50.8607 0014433  21.3793  36.7780 14.33176763921162
Source of the keplerian elements: AFSPC